Location: Newark
(41.0400°S, 62.7845°W)
Time: 13:48:22
(UTC+00:00)

STARLINK-3086 - Pass Details

Date: 31 May 2022
Orbit: 570 x 574 km, 70.0° (Epoch: 30 June)

Event Time Altitude Azimuth Distance (km) Brightness Sun altitude
Rises 22:46:20 0° 227° (SW) 2,808 7.7 -21.1°
Reaches altitude 10° 22:49:42 10° 255° (WSW) 1,897 7.3 -21.7°
Maximum altitude 22:51:34 13° 281° (W) 1,719 7.2 -22.1°
Drops below altitude 10° 22:53:26 10° 308° (NW) 1,885 7.2 -22.4°
Sets 22:56:46 0° 336° (NNW) 2,770 7.7 -23.0°
